Time,TemperatureF,DewpointF,PressureIn,WindDirection,WindDirectionDegrees,WindSpeedMPH,WindSpeedGustMPH,Humidity,HourlyPrecipIn,Conditions,Clouds,dailyrainin,SolarRadiationWatts/m^2,SoftwareType,DateUTC
2013-09-30 00:01:00,49.3,47.1,23.21,West,261,0.0,0.0,92,0.00,,,0.01,0,Wunderground v.1.15,2013-09-30 04:01:00,
2013-09-30 00:10:00,48.8,46.6,23.21,West,261,0.0,0.0,92,0.00,,,0.00,0,Wunderground v.1.15,2013-09-30 04:10:00,
2013-09-30 00:20:00,48.5,46.3,23.21,West,261,0.0,0.0,92,0.00,,,0.00,0,Wunderground v.1.15,2013-09-30 04:20:00,
2013-09-30 00:40:00,49.1,46.9,23.21,West,261,0.0,0.0,92,0.00,,,0.00,0,Wunderground v.1.15,2013-09-30 04:40:00,
2013-09-30 00:50:00,48.1,45.6,23.21,West,261,0.0,0.0,91,0.00,,,0.00,0,Wunderground v.1.15,2013-09-30 04:50:00,
2013-09-30 01:01:00,47.5,45.3,23.21,West,261,0.0,0.0,92,0.00,,,0.00,0,Wunderground v.1.15,2013-09-30 05:01:00,
2013-09-30 01:10:00,47.2,45.0,23.21,West,261,0.0,0.0,92,0.00,,,0.00,0,Wunderground v.1.15,2013-09-30 05:10:00,
2013-09-30 01:20:00,46.9,44.7,23.22,West,261,0.0,0.0,92,0.00,,,0.00,0,Wunderground v.1.15,2013-09-30 05:20:00,
2013-09-30 01:40:00,46.4,44.2,23.22,West,261,0.0,0.0,92,0.00,,,0.00,0,Wunderground v.1.15,2013-09-30 05:40:00,
2013-09-30 01:50:00,46.3,44.1,23.21,West,261,0.0,0.0,92,0.00,,,0.00,0,Wunderground v.1.15,2013-09-30 05:50:00,
2013-09-30 02:10:00,46.0,43.8,23.21,West,261,0.0,0.0,92,0.00,,,0.00,0,Wunderground v.1.15,2013-09-30 06:10:00,
2013-09-30 02:20:00,45.9,43.7,23.21,West,261,0.0,0.0,92,0.00,,,0.00,0,Wunderground v.1.15,2013-09-30 06:20:00,
2013-09-30 02:40:00,46.3,44.4,23.21,West,261,0.0,0.0,93,0.00,,,0.00,0,Wunderground v.1.15,2013-09-30 06:40:00,
2013-09-30 02:50:00,46.3,44.4,23.21,West,261,0.0,0.0,93,0.00,,,0.00,0,Wunderground v.1.15,2013-09-30 06:50:00,
2013-09-30 03:01:00,45.4,43.2,23.21,West,261,0.0,0.0,92,0.00,,,0.00,0,Wunderground v.1.15,2013-09-30 07:01:00,
2013-09-30 03:10:00,44.8,42.9,23.21,West,261,0.0,0.0,93,0.00,,,0.00,0,Wunderground v.1.15,2013-09-30 07:10:00,
2013-09-30 03:20:00,44.2,42.0,23.21,West,261,0.0,0.0,92,0.00,,,0.00,0,Wunderground v.1.15,2013-09-30 07:20:00,
2013-09-30 03:40:00,44.4,42.5,23.21,West,261,0.0,0.0,93,0.00,,,0.00,0,Wunderground v.1.15,2013-09-30 07:40:00,
2013-09-30 03:50:00,44.2,42.3,23.21,West,261,0.0,0.0,93,0.00,,,0.00,0,Wunderground v.1.15,2013-09-30 07:50:00,
2013-09-30 04:10:00,43.1,41.2,23.21,West,261,0.0,0.0,93,0.00,,,0.00,0,Wunderground v.1.15,2013-09-30 08:10:00,
2013-09-30 04:20:00,43.1,41.2,23.21,West,261,0.0,0.0,93,0.00,,,0.00,0,Wunderground v.1.15,2013-09-30 08:20:00,
2013-09-30 04:40:00,43.1,41.2,23.21,West,261,0.0,0.0,93,0.00,,,0.00,0,Wunderground v.1.15,2013-09-30 08:40:00,
2013-09-30 04:50:00,43.7,41.8,23.21,West,261,0.0,0.0,93,0.00,,,0.00,0,Wunderground v.1.15,2013-09-30 08:50:00,
2013-09-30 05:10:00,43.4,41.5,23.21,West,261,0.0,0.0,93,0.00,,,0.00,0,Wunderground v.1.15,2013-09-30 09:10:00,
2013-09-30 05:20:00,43.4,41.5,23.21,West,261,0.0,0.0,93,0.00,,,0.00,0,Wunderground v.1.15,2013-09-30 09:20:00,
2013-09-30 05:40:00,43.0,41.1,23.21,West,261,0.0,0.0,93,0.00,,,0.00,0,Wunderground v.1.15,2013-09-30 09:40:00,
2013-09-30 05:50:00,43.0,41.1,23.21,West,261,0.0,0.0,93,0.00,,,0.00,0,Wunderground v.1.15,2013-09-30 09:50:00,
2013-09-30 06:01:00,43.0,41.1,23.21,West,261,0.0,0.0,93,0.00,,,0.00,0,Wunderground v.1.15,2013-09-30 10:01:00,
2013-09-30 06:20:00,43.4,41.8,23.22,West,261,0.0,0.0,94,0.00,,,0.00,0,Wunderground v.1.15,2013-09-30 10:20:00,
2013-09-30 06:40:00,42.2,40.3,23.22,West,261,0.0,0.0,93,0.00,,,0.00,0,Wunderground v.1.15,2013-09-30 10:40:00,
2013-09-30 06:50:00,42.4,40.5,23.22,West,261,0.0,0.0,93,0.00,,,0.00,0,Wunderground v.1.15,2013-09-30 10:50:00,
2013-09-30 07:10:00,42.7,41.1,23.22,West,261,0.0,0.0,94,0.00,,,0.00,18,Wunderground v.1.15,2013-09-30 11:10:00,
2013-09-30 07:20:00,43.4,41.8,23.22,West,261,0.0,0.0,94,0.00,,,0.00,39,Wunderground v.1.15,2013-09-30 11:20:00,
2013-09-30 07:31:00,44.5,42.9,23.22,West,261,0.0,0.0,94,0.00,,,0.00,62,Wunderground v.1.15,2013-09-30 11:31:00,
2013-09-30 07:40:00,45.3,43.7,23.22,West,261,0.0,0.0,94,0.00,,,0.00,111,Wunderground v.1.15,2013-09-30 11:40:00,
2013-09-30 07:50:00,46.1,44.5,23.22,West,261,0.0,0.0,94,0.00,,,0.00,162,Wunderground v.1.15,2013-09-30 11:50:00,
2013-09-30 08:01:00,47.6,46.0,23.22,West,261,0.0,0.0,94,0.00,,,0.00,193,Wunderground v.1.15,2013-09-30 12:01:00,
2013-09-30 08:10:00,49.5,48.1,23.22,West,261,0.0,0.0,95,0.00,,,0.00,183,Wunderground v.1.15,2013-09-30 12:10:00,
2013-09-30 08:20:00,49.8,48.1,23.22,West,261,0.0,0.0,94,0.00,,,0.00,97,Wunderground v.1.15,2013-09-30 12:20:00,
2013-09-30 08:40:00,50.4,48.5,23.22,West,261,0.0,0.0,93,0.00,,,0.00,107,Wunderground v.1.15,2013-09-30 12:40:00,
2013-09-30 08:50:00,50.6,48.4,23.22,West,261,0.0,0.0,92,0.00,,,0.00,98,Wunderground v.1.15,2013-09-30 12:50:00,
2013-09-30 09:10:00,51.0,48.5,23.22,West,261,0.0,0.0,91,0.00,,,0.00,148,Wunderground v.1.15,2013-09-30 13:10:00,
2013-09-30 09:20:00,51.6,47.9,23.22,West,261,0.0,0.0,87,0.00,,,0.00,209,Wunderground v.1.15,2013-09-30 13:20:00,
2013-09-30 09:31:00,53.5,50.6,23.22,West,261,0.0,0.0,90,0.00,,,0.00,550,Wunderground v.1.15,2013-09-30 13:31:00,
2013-09-30 09:40:00,55.8,52.3,23.22,West,261,0.0,0.0,88,0.00,,,0.00,543,Wunderground v.1.15,2013-09-30 13:40:00,
2013-09-30 09:50:00,57.9,52.4,23.22,West,261,0.0,0.0,82,0.00,,,0.00,526,Wunderground v.1.15,2013-09-30 13:50:00,
2013-09-30 10:01:00,60.3,53.1,23.22,West,261,0.0,0.0,77,0.00,,,0.00,536,Wunderground v.1.15,2013-09-30 14:01:00,
2013-09-30 10:10:00,61.5,52.0,23.22,West,261,0.0,0.0,71,0.00,,,0.00,529,Wunderground v.1.15,2013-09-30 14:10:00,
2013-09-30 10:20:00,62.3,52.4,23.22,West,261,0.0,0.0,70,0.00,,,0.00,304,Wunderground v.1.15,2013-09-30 14:20:00,
2013-09-30 10:30:00,62.2,51.9,23.22,West,261,0.0,0.0,69,0.00,,,0.00,188,Wunderground v.1.15,2013-09-30 14:30:00,
2013-09-30 10:40:00,62.6,51.9,23.22,SW,227,1.0,5.0,68,0.00,,,0.00,605,Wunderground v.1.15,2013-09-30 14:40:00,
2013-09-30 10:50:00,63.6,51.6,23.22,South,190,2.0,2.0,65,0.00,,,0.00,575,Wunderground v.1.15,2013-09-30 14:50:00,
2013-09-30 11:10:00,65.5,53.0,23.22,SE,125,0.0,2.0,64,0.00,,,0.00,608,Wunderground v.1.15,2013-09-30 15:10:00,
2013-09-30 11:20:00,66.2,51.9,23.22,SSW,209,1.0,1.0,60,0.00,,,0.00,621,Wunderground v.1.15,2013-09-30 15:20:00,
2013-09-30 11:40:00,66.5,51.7,23.21,SW,225,1.0,2.0,59,0.00,,,0.00,647,Wunderground v.1.15,2013-09-30 15:40:00,
2013-09-30 11:50:00,67.7,52.4,23.21,SSW,203,1.0,2.0,58,0.00,,,0.00,647,Wunderground v.1.15,2013-09-30 15:50:00,
2013-09-30 12:00:00,68.0,51.2,23.21,WSW,257,1.0,6.0,55,0.00,,,0.00,656,Wunderground v.1.15,2013-09-30 16:00:00,
2013-09-30 12:10:00,67.8,51.0,23.21,SW,235,2.0,2.0,55,0.00,,,0.00,663,Wunderground v.1.15,2013-09-30 16:10:00,
2013-09-30 12:20:00,68.7,51.9,23.21,South,171,2.0,2.0,55,0.00,,,0.00,668,Wunderground v.1.15,2013-09-30 16:20:00,
2013-09-30 12:30:00,69.3,51.9,23.21,SSW,205,2.0,2.0,54,0.00,,,0.00,668,Wunderground v.1.15,2013-09-30 16:30:00,
2013-09-30 12:40:00,70.3,52.4,23.21,SW,217,1.0,2.0,53,0.00,,,0.00,666,Wunderground v.1.15,2013-09-30 16:40:00,
2013-09-30 12:50:00,71.0,52.5,23.21,SW,221,2.0,2.0,52,0.00,,,0.00,666,Wunderground v.1.15,2013-09-30 16:50:00,
2013-09-30 13:00:00,70.7,52.2,23.21,WNW,287,2.0,5.0,52,0.00,,,0.00,661,Wunderground v.1.15,2013-09-30 17:00:00,
2013-09-30 13:10:00,71.2,52.1,23.21,SSW,200,2.0,2.0,51,0.00,,,0.00,652,Wunderground v.1.15,2013-09-30 17:10:00,
2013-09-30 13:20:00,72.6,52.9,23.21,WSW,248,1.0,1.0,50,0.00,,,0.00,649,Wunderground v.1.15,2013-09-30 17:20:00,
2013-09-30 13:30:00,72.9,52.6,23.21,SSW,213,1.0,1.0,49,0.00,,,0.00,642,Wunderground v.1.15,2013-09-30 17:30:00,
2013-09-30 13:40:00,73.6,52.1,23.20,South,189,1.0,1.0,47,0.00,,,0.00,629,Wunderground v.1.15,2013-09-30 17:40:00,
2013-09-30 13:50:00,73.8,51.7,23.20,SSW,194,1.0,2.0,46,0.00,,,0.00,629,Wunderground v.1.15,2013-09-30 17:50:00,
2013-09-30 14:10:00,74.5,51.2,23.20,SSW,197,1.0,3.0,44,0.00,,,0.00,610,Wunderground v.1.15,2013-09-30 18:10:00,
2013-09-30 14:20:00,73.8,51.1,23.20,NW,317,2.0,2.0,45,0.00,,,0.00,596,Wunderground v.1.15,2013-09-30 18:20:00,
2013-09-30 14:40:00,74.6,50.0,23.20,SSW,198,1.0,1.0,42,0.00,,,0.00,563,Wunderground v.1.15,2013-09-30 18:40:00,
2013-09-30 14:50:00,74.5,51.2,23.20,WSW,252,1.0,2.0,44,0.00,,,0.00,554,Wunderground v.1.15,2013-09-30 18:50:00,
2013-09-30 15:00:00,74.1,50.8,23.20,NNW,331,2.0,2.0,44,0.00,,,0.00,533,Wunderground v.1.15,2013-09-30 19:00:00,
2013-09-30 15:10:00,75.0,51.0,23.20,WSW,246,1.0,2.0,43,0.00,,,0.00,504,Wunderground v.1.15,2013-09-30 19:10:00,
2013-09-30 15:20:00,75.2,49.9,23.20,SSW,210,1.0,1.0,41,0.00,,,0.00,483,Wunderground v.1.15,2013-09-30 19:20:00,
2013-09-30 15:30:00,75.5,50.8,23.20,SW,219,0.0,1.0,42,0.00,,,0.00,462,Wunderground v.1.15,2013-09-30 19:30:00,
2013-09-30 15:40:00,75.3,50.0,23.20,SW,219,1.0,1.0,41,0.00,,,0.00,438,Wunderground v.1.15,2013-09-30 19:40:00,
2013-09-30 15:50:00,75.5,50.8,23.20,West,280,0.0,3.0,42,0.00,,,0.00,415,Wunderground v.1.15,2013-09-30 19:50:00,
2013-09-30 16:10:00,75.3,50.0,23.20,West,269,1.0,1.0,41,0.00,,,0.00,355,Wunderground v.1.15,2013-09-30 20:10:00,
2013-09-30 16:20:00,75.5,49.5,23.20,West,269,0.0,0.0,40,0.00,,,0.00,336,Wunderground v.1.15,2013-09-30 20:20:00,
2013-09-30 16:40:00,73.9,49.4,23.20,SSW,205,0.0,1.0,42,0.00,,,0.00,134,Wunderground v.1.15,2013-09-30 20:40:00,
2013-09-30 16:50:00,74.5,49.2,23.20,SSW,205,0.0,0.0,41,0.00,,,0.00,246,Wunderground v.1.15,2013-09-30 20:50:00,
2013-09-30 17:10:00,74.5,49.2,23.20,SSW,211,1.0,1.0,41,0.00,,,0.00,195,Wunderground v.1.15,2013-09-30 21:10:00,
2013-09-30 17:20:00,74.1,49.5,23.20,SSW,211,0.0,0.0,42,0.00,,,0.00,165,Wunderground v.1.15,2013-09-30 21:20:00,
2013-09-30 17:40:00,72.9,53.2,23.20,SSW,211,0.0,0.0,50,0.00,,,0.00,107,Wunderground v.1.15,2013-09-30 21:40:00,
2013-09-30 17:50:00,71.5,54.5,23.20,SSW,211,0.0,0.0,55,0.00,,,0.00,79,Wunderground v.1.15,2013-09-30 21:50:00,
2013-09-30 18:10:00,69.7,54.3,23.20,SSW,211,0.0,0.0,58,0.00,,,0.00,25,Wunderground v.1.15,2013-09-30 22:10:00,
2013-09-30 18:20:00,67.5,54.5,23.20,SSW,211,0.0,0.0,63,0.00,,,0.00,16,Wunderground v.1.15,2013-09-30 22:20:00,
2013-09-30 18:30:00,65.7,53.6,23.20,SSW,211,0.0,0.0,65,0.00,,,0.00,7,Wunderground v.1.15,2013-09-30 22:30:00,
2013-09-30 18:40:00,64.4,52.8,23.20,SSW,211,0.0,0.0,66,0.00,,,0.00,0,Wunderground v.1.15,2013-09-30 22:40:00,
2013-09-30 18:49:00,63.3,52.6,23.20,SSW,211,0.0,0.0,68,0.00,,,0.00,0,Wunderground v.1.15,2013-09-30 22:49:00,
2013-09-30 19:10:00,60.9,51.8,23.20,SSW,211,0.0,0.0,72,0.00,,,0.00,0,Wunderground v.1.15,2013-09-30 23:10:00,
2013-09-30 19:20:00,60.0,51.7,23.20,SSW,211,0.0,0.0,74,0.00,,,0.00,0,Wunderground v.1.15,2013-09-30 23:20:00,
2013-09-30 19:30:00,59.5,51.9,23.20,SSW,211,0.0,0.0,76,0.00,,,0.00,0,Wunderground v.1.15,2013-09-30 23:30:00,
2013-09-30 19:40:00,59.2,51.6,23.20,SSW,211,0.0,0.0,76,0.00,,,0.00,0,Wunderground v.1.15,2013-09-30 23:40:00,
2013-09-30 19:50:00,58.6,51.4,23.20,SSW,211,0.0,0.0,77,0.00,,,0.00,0,Wunderground v.1.15,2013-09-30 23:50:00,
2013-09-30 20:10:00,56.8,50.7,23.20,SSW,211,0.0,0.0,80,0.00,,,0.00,0,Wunderground v.1.15,2013-10-01 00:10:00,
2013-09-30 20:20:00,56.5,50.7,23.20,SSW,211,0.0,0.0,81,0.00,,,0.00,0,Wunderground v.1.15,2013-10-01 00:20:00,
2013-09-30 20:30:00,56.1,50.7,23.20,SSW,211,0.0,0.0,82,0.00,,,0.00,0,Wunderground v.1.15,2013-10-01 00:30:00,
2013-09-30 20:40:00,55.8,50.4,23.20,SSW,211,0.0,0.0,82,0.00,,,0.00,0,Wunderground v.1.15,2013-10-01 00:40:00,
2013-09-30 20:50:00,55.3,50.2,23.20,SSW,211,0.0,0.0,83,0.00,,,0.00,0,Wunderground v.1.15,2013-10-01 00:50:00,
2013-09-30 21:10:00,54.7,50.3,23.20,SSW,211,0.0,0.0,85,0.00,,,0.00,0,Wunderground v.1.15,2013-10-01 01:10:00,
2013-09-30 21:20:00,54.4,50.0,23.20,SSW,211,0.0,0.0,85,0.00,,,0.00,0,Wunderground v.1.15,2013-10-01 01:20:00,
2013-09-30 21:30:00,53.7,49.6,23.20,SSW,211,0.0,0.0,86,0.00,,,0.00,0,Wunderground v.1.15,2013-10-01 01:30:00,
2013-09-30 21:40:00,53.4,49.6,23.20,SSW,211,0.0,0.0,87,0.00,,,0.00,0,Wunderground v.1.15,2013-10-01 01:40:00,
2013-09-30 21:50:00,54.1,50.3,23.20,SSW,211,0.0,0.0,87,0.00,,,0.00,0,Wunderground v.1.15,2013-10-01 01:50:00,
2013-09-30 22:10:00,54.0,49.9,23.20,SSW,211,0.0,0.0,86,0.00,,,0.00,0,Wunderground v.1.15,2013-10-01 02:10:00,
2013-09-30 22:20:00,53.4,49.3,23.20,SSW,211,0.0,0.0,86,0.00,,,0.00,0,Wunderground v.1.15,2013-10-01 02:20:00,
2013-09-30 22:39:00,52.8,49.3,23.20,SSW,211,0.0,0.0,88,0.00,,,0.00,0,Wunderground v.1.15,2013-10-01 02:39:00,
2013-09-30 22:50:00,52.4,48.9,23.20,SSW,211,0.0,0.0,88,0.00,,,0.00,0,Wunderground v.1.15,2013-10-01 02:50:00,
2013-09-30 23:00:00,52.1,49.0,23.20,SSW,211,0.0,0.0,89,0.00,,,0.00,0,Wunderground v.1.15,2013-10-01 03:00:00,
2013-09-30 23:10:00,51.9,48.8,23.20,SSW,211,0.0,0.0,89,0.00,,,0.00,0,Wunderground v.1.15,2013-10-01 03:10:00,
2013-09-30 23:20:00,51.8,49.0,23.20,SSW,211,0.0,0.0,90,0.00,,,0.00,0,Wunderground v.1.15,2013-10-01 03:20:00,
2013-09-30 23:30:00,51.5,48.7,23.20,SSW,211,0.0,0.0,90,0.00,,,0.00,0,Wunderground v.1.15,2013-10-01 03:30:00,
2013-09-30 23:40:00,50.9,48.1,23.20,SSW,211,0.0,0.0,90,0.00,,,0.00,0,Wunderground v.1.15,2013-10-01 03:40:00,
2013-09-30 23:49:00,50.9,48.4,23.20,SSW,211,0.0,0.0,91,0.00,,,0.00,0,Wunderground v.1.15,2013-10-01 03:49:00,